When you browse on this site, cookies collect data to enhance your experience and personalize the content and advertising you see.
Visit our Privacy Policy to learn more. By continuing to use the site, you agree to this use of cookies and data.
  • In Sweden
  • List of Countries
  • For 7 days
  • Water Temperature
  • Satellite Maps
  • Weather Map
  • Weather Widgets
  • user-avatar
    Login

    Hourly Weather Bolshoy Michkas

    Today, 22 May, Wednesday

    Time Temperature Precipitation Wind Pressure Humidity
    00:00 +12°C° 0 mm 3 mps 749 mmHg 56%
    01:00 +12°C° 0 mm 3 mps 749 mmHg 64%
    02:00 +12°C° 0 mm 3 mps 749 mmHg 72%
    03:00 +12°C° 0 mm 2 mps 749 mmHg 78%
    04:00 +12°C° 0 mm 3 mps 748 mmHg 79%
    05:00 +13°C° 0 mm 3 mps 748 mmHg 80%
    06:00 +14°C° 0 mm 4 mps 748 mmHg 81%
    07:00 +15°C° 0 mm 4 mps 748 mmHg 76%
    08:00 +18°C° 0 mm 4 mps 747 mmHg 70%
    09:00 +20°C° 0 mm 5 mps 747 mmHg 64%
    10:00 +21°C° 0.2 mm 5 mps 747 mmHg 62%
    11:00 +22°C° 0.2 mm 5 mps 746 mmHg 59%
    12:00 +22°C° 0.2 mm 6 mps 746 mmHg 56%
    13:00 +23°C° 0.2 mm 5 mps 746 mmHg 54%
    14:00 +23°C° 0.2 mm 5 mps 745 mmHg 53%
    15:00 +23°C° 0.2 mm 5 mps 745 mmHg 52%
    16:00 +23°C° 0 mm 5 mps 745 mmHg 57%
    17:00 +22°C° 0 mm 4 mps 745 mmHg 62%
    18:00 +22°C° 0 mm 3 mps 745 mmHg 67%
    19:00 +20°C° 0 mm 3 mps 744 mmHg 72%
    20:00 +18°C° 0 mm 4 mps 744 mmHg 76%
    21:00 +17°C° 0 mm 4 mps 744 mmHg 81%
    22:00 +15°C° 0 mm 4 mps 744 mmHg 83%
    23:00 +15°C° 0 mm 4 mps 744 mmHg 85%

    Tomorrow, 23 May, Thursday

    Time Temperature Precipitation Wind Pressure Humidity
    00:00 +14°C° 0 mm 4 mps 744 mmHg 87%
    01:00 +14°C° 0 mm 4 mps 743 mmHg 82%
    02:00 +14°C° 0 mm 4 mps 743 mmHg 77%
    03:00 +14°C° 0 mm 4 mps 743 mmHg 73%
    04:00 +14°C° 0 mm 4 mps 743 mmHg 72%
    05:00 +14°C° 0 mm 4 mps 742 mmHg 72%
    06:00 +14°C° 0 mm 4 mps 742 mmHg 72%
    07:00 +15°C° 0 mm 4 mps 742 mmHg 69%
    08:00 +18°C° 0 mm 4 mps 742 mmHg 65%
    09:00 +19°C° 0 mm 5 mps 741 mmHg 62%
    10:00 +20°C° 0 mm 5 mps 741 mmHg 58%
    11:00 +22°C° 0 mm 5 mps 740 mmHg 55%
    12:00 +23°C° 0 mm 5 mps 740 mmHg 51%
    13:00 +23°C° 0 mm 5 mps 740 mmHg 52%
    14:00 +23°C° 0 mm 5 mps 739 mmHg 53%
    15:00 +25°C° 0 mm 5 mps 739 mmHg 53%
    16:00 +23°C° 0 mm 4 mps 739 mmHg 58%
    17:00 +24°C° 0 mm 3 mps 738 mmHg 63%
    18:00 +22°C° 0 mm 3 mps 738 mmHg 67%
    19:00 +21°C° 0.2 mm 2 mps 738 mmHg 73%
    20:00 +19°C° 0.2 mm 2 mps 738 mmHg 78%
    21:00 +17°C° 0.2 mm 2 mps 738 mmHg 83%
    22:00 +17°C° 0 mm 2 mps 738 mmHg 85%
    23:00 +16°C° 0 mm 2 mps 738 mmHg 87%

    Day after tomorrow, 24 May, Friday

    Time Temperature Precipitation Wind Pressure Humidity
    00:00 +16°C° 0 mm 2 mps 738 mmHg 89%
    01:00 +15°C° 0 mm 2 mps 738 mmHg 91%
    02:00 +15°C° 0 mm 2 mps 739 mmHg 93%
    03:00 +14°C° 0 mm 2 mps 739 mmHg 94%
    04:00 +13°C° 0 mm 3 mps 739 mmHg 94%
    05:00 +13°C° 0 mm 4 mps 739 mmHg 94%
    06:00 +13°C° 0 mm 5 mps 740 mmHg 94%
    07:00 +13°C° 0 mm 5 mps 740 mmHg 92%
    08:00 +13°C° 0 mm 5 mps 741 mmHg 90%
    09:00 +13°C° 0 mm 5 mps 742 mmHg 88%
    10:00 +14°C° 0 mm 5 mps 742 mmHg 82%
    11:00 +15°C° 0 mm 5 mps 742 mmHg 76%
    12:00 +16°C° 0 mm 5 mps 743 mmHg 70%
    13:00 +17°C° 0 mm 5 mps 743 mmHg 67%
    14:00 +17°C° 0 mm 5 mps 743 mmHg 64%
    15:00 +19°C° 0 mm 5 mps 744 mmHg 61%
    16:00 +18°C° 0 mm 4 mps 744 mmHg 62%
    17:00 +18°C° 0 mm 4 mps 744 mmHg 63%
    18:00 +17°C° 0 mm 4 mps 744 mmHg 64%
    19:00 +14°C° 0 mm 4 mps 745 mmHg 67%
    20:00 +13°C° 0 mm 4 mps 745 mmHg 69%
    21:00 +11°C° 0 mm 4 mps 746 mmHg 72%
    22:00 +10°C° 0 mm 4 mps 746 mmHg 72%
    23:00 +10°C° 0 mm 4 mps 746 mmHg 71%

    25 May, Saturday

    Time Temperature Precipitation Wind Pressure Humidity
    00:00 +8°C° 0 mm 4 mps 746 mmHg 71%
    01:00 +8°C° 0 mm 4 mps 746 mmHg 73%
    02:00 +7°C° 0 mm 4 mps 747 mmHg 75%
    03:00 +7°C° 0 mm 4 mps 747 mmHg 76%
    04:00 +8°C° 0 mm 4 mps 747 mmHg 73%
    05:00 +8°C° 0 mm 5 mps 747 mmHg 69%
    06:00 +8°C° 0 mm 5 mps 747 mmHg 66%
    07:00 +10°C° 0 mm 6 mps 747 mmHg 64%
    08:00 +11°C° 0 mm 6 mps 747 mmHg 62%
    09:00 +13°C° 0 mm 6 mps 747 mmHg 60%
    10:00 +14°C° 0 mm 6 mps 746 mmHg 60%
    11:00 +15°C° 0 mm 6 mps 746 mmHg 61%
    12:00 +17°C° 0 mm 7 mps 746 mmHg 61%
    13:00 +16°C° 0.2 mm 6 mps 746 mmHg 66%
    14:00 +16°C° 0.2 mm 6 mps 745 mmHg 70%
    15:00 +15°C° 0.2 mm 6 mps 745 mmHg 75%
    16:00 +16°C° 0 mm 6 mps 744 mmHg 74%
    17:00 +16°C° 0 mm 6 mps 744 mmHg 74%
    18:00 +17°C° 0 mm 6 mps 743 mmHg 74%
    19:00 +16°C° 0 mm 6 mps 743 mmHg 74%
    20:00 +15°C° 0 mm 6 mps 743 mmHg 75%
    21:00 +14°C° 0 mm 6 mps 743 mmHg 76%
    22:00 +14°C° 0 mm 6 mps 742 mmHg 77%
    23:00 +14°C° 0 mm 6 mps 742 mmHg 78%

    26 May, Sunday

    Time Temperature Precipitation Wind Pressure Humidity
    00:00 +14°C° 0 mm 6 mps 742 mmHg 80%
    01:00 +14°C° 0.3 mm 6 mps 741 mmHg 84%
    02:00 +14°C° 0.3 mm 5 mps 741 mmHg 87%
    03:00 +14°C° 0.3 mm 5 mps 741 mmHg 91%
    04:00 +14°C° 0 mm 5 mps 740 mmHg 92%
    05:00 +14°C° 0 mm 6 mps 740 mmHg 92%
    06:00 +14°C° 0 mm 6 mps 740 mmHg 93%
    07:00 +15°C° 0 mm 6 mps 740 mmHg 91%
    08:00 +16°C° 0 mm 6 mps 739 mmHg 89%
    09:00 +17°C° 0 mm 6 mps 739 mmHg 87%
    10:00 +19°C° 0.6 mm 6 mps 739 mmHg 82%
    11:00 +20°C° 0.6 mm 6 mps 739 mmHg 77%
    12:00 +22°C° 0.6 mm 6 mps 738 mmHg 73%
    13:00 +20°C° 0.6 mm 5 mps 738 mmHg 77%
    14:00 +19°C° 0.6 mm 5 mps 738 mmHg 82%
    15:00 +18°C° 0.6 mm 4 mps 737 mmHg 87%
    16:00 +18°C° 0.4 mm 4 mps 737 mmHg 86%
    17:00 +19°C° 0.4 mm 3 mps 737 mmHg 86%
    18:00 +19°C° 0.4 mm 2 mps 737 mmHg 85%
    19:00 +18°C° 1.6 mm 3 mps 737 mmHg 86%
    20:00 +18°C° 1.6 mm 3 mps 737 mmHg 88%
    21:00 +17°C° 1.6 mm 3 mps 737 mmHg 90%
    22:00 +16°C° 0.3 mm 3 mps 737 mmHg 92%
    23:00 +16°C° 0.3 mm 3 mps 737 mmHg 93%

    27 May, Monday

    Time Temperature Precipitation Wind Pressure Humidity
    00:00 +16°C° 0.3 mm 3 mps 737 mmHg 95%
    01:00 +16°C° 0.4 mm 3 mps 737 mmHg 96%
    02:00 +16°C° 0.4 mm 3 mps 737 mmHg 96%
    03:00 +16°C° 0.4 mm 3 mps 737 mmHg 97%
    04:00 +14°C° 0 mm 3 mps 737 mmHg 95%
    05:00 +14°C° 0 mm 4 mps 738 mmHg 93%
    06:00 +14°C° 0 mm 5 mps 738 mmHg 92%
    07:00 +15°C° 0 mm 5 mps 738 mmHg 85%
    08:00 +16°C° 0 mm 6 mps 739 mmHg 79%
    09:00 +17°C° 0 mm 6 mps 739 mmHg 73%
    10:00 +17°C° 0.1 mm 6 mps 739 mmHg 72%
    11:00 +17°C° 0.1 mm 6 mps 739 mmHg 72%
    12:00 +17°C° 0.1 mm 6 mps 739 mmHg 72%
    13:00 +17°C° 0.1 mm 7 mps 739 mmHg 70%
    14:00 +17°C° 0.1 mm 8 mps 740 mmHg 68%
    15:00 +18°C° 0.1 mm 8 mps 740 mmHg 66%
    16:00 +17°C° 0.3 mm 8 mps 740 mmHg 67%
    17:00 +16°C° 0.3 mm 7 mps 740 mmHg 69%
    18:00 +15°C° 0.3 mm 6 mps 740 mmHg 70%
    19:00 +13°C° 0.1 mm 6 mps 741 mmHg 73%
    20:00 +12°C° 0.1 mm 5 mps 742 mmHg 76%
    21:00 +9°C° 0.1 mm 5 mps 742 mmHg 79%
    22:00 +9°C° 0 mm 5 mps 743 mmHg 79%
    23:00 +8°C° 0 mm 5 mps 743 mmHg 80%
    Show more